Theta_e
313 319 322 320 318 315 318 317 317 315 313 312 313 312 313 315 313 315 316 316 317 332 337 343 344 344 344 344 343 345 347 347 346 346 346 347 346 346 345 345 344 342 341 345
313 318 317 317 317 317 316 317 316 315 315 314 314 314 314 315 315 316 316 317 317 318 328 335 340 342 343 344 344 343 346 346 346 346 345 345 345 344 345 343 342 342 342 342
313 313 315 318 319 319 319 316 316 316 314 314 315 315 315 315 315 315 315 316 317 318 319 324 334 339 341 342 343 343 342 345 345 343 343 342 342 341 342 343 342 342 343 342
313 313 315 318 319 319 320 318 315 314 315 315 314 315 316 316 316 315 317 317 316 317 318 319 329 338 341 340 339 339 339 341 340 342 343 343 344 344 340 339 339 338 337 338
315 314 314 318 317 318 317 316 316 317 316 316 315 315 316 316 316 317 321 322 322 322 318 317 318 331 339 335 335 336 337 338 337 340 342 342 341 339 337 334 334 332 333 332
313 314 314 317 317 316 316 317 316 316 317 318 317 315 316 317 322 325 327 329 328 329 327 320 322 331 333 334 335 335 336 336 336 336 336 337 337 337 336 334 333 332 332 329
314 316 314 316 319 317 317 318 320 318 317 318 317 317 316 327 329 328 327 329 327 327 328 327 331 331 330 331 332 332 331 331 331 331 332 332 332 332 331 329 327 325 323 322
318 317 317 319 319 320 319 319 318 319 318 318 314 317 318 329 329 327 327 327 326 325 325 326 326 326 328 329 330 330 329 327 326 325 324 324 323 322 321 321 320 320 318 317
318 316 313 318 320 320 320 319 316 316 317 317 315 327 329 331 329 327 326 327 326 325 323 324 324 325 325 325 325 325 324 322 322 321 320 319 319 319 318 316 315 314 313 312
316 318 315 321 320 319 320 318 315 317 318 318 320 325 321 334 331 328 327 327 325 323 322 323 322 321 321 321 320 321 321 321 320 319 318 317 316 315 314 313 311 310 309 308
319 320 319 322 324 323 320 319 317 316 319 321 324 325 329 334 330 330 328 325 322 320 319 317 316 316 316 316 316 316 315 315 315 315 315 314 313 312 311 310 309 309 308 307
320 323 327 327 323 321 320 319 318 319 322 328 324 334 330 331 329 328 323 320 317 315 314 313 312 311 311 312 312 312 312 313 313 313 312 311 311 310 310 309 308 308 307 307
323 324 328 328 323 323 322 320 318 320 322 328 328 334 329 330 327 321 319 316 314 313 312 312 312 311 310 310 310 311 311 311 310 310 310 309 309 309 308 308 307 307 306 306
323 324 324 328 326 323 323 320 318 318 322 327 332 332 333 330 324 319 316 314 313 312 312 310 310 309 308 308 308 308 308 308 308 308 308 308 307 307 306 306 306 306 305 306
324 326 324 323 324 323 322 320 318 317 320 320 331 333 332 327 321 317 315 313 313 311 310 309 308 307 306 306 306 306 305 305 305 305 306 305 305 305 305 305 305 305 305 306
322 328 325 325 324 323 324 320 317 316 326 328 330 333 329 322 316 316 314 314 312 310 308 307 306 304 304 303 303 303 302 302 302 303 303 303 303 304 304 304 304 305 305 306
322 326 328 330 324 323 323 319 318 322 327 330 334 329 322 319 317 316 314 312 310 308 306 304 303 301 300 300 300 300 299 299 300 300 300 301 302 303 303 303 304 305 306 307
324 326 327 329 325 328 325 327 322 327 328 328 330 325 321 318 314 312 311 310 307 304 302 301 299 298 297 297 297 298 298 298 298 299 300 300 301 303 303 303 304 305 307 308
322 326 329 331 330 329 329 327 327 326 331 328 325 316 310 307 306 303 303 302 301 300 296 296 296 295 295 295 296 297 297 297 297 298 298 299 301 301 302 302 303 305 307 307
322 323 327 328 330 327 330 327 323 325 327 316 312 310 311 315 318 304 299 298 296 294 293 293 292 293 294 295 295 296 296 296 296 296 296 297 298 300 301 301 303 304 305 306
322 324 328 327 329 328 317 317 319 327 327 313 312 314 316 315 312 301 298 296 294 294 293 292 293 293 293 293 294 295 295 295 295 295 294 296 298 299 300 300 302 303 304 306
323 324 325 326 329 332 309 319 325 319 313 313 313 307 303 301 299 297 296 294 292 291 291 291 292 292 292 292 293 293 293 294 294 294 295 297 297 297 298 300 302 302 303 303
318 315 316 314 312 306 307 311 312 311 309 306 304 302 301 299 296 294 293 292 292 292 291 292 292 292 292 292 292 293 293 293 294 295 296 296 296 296 297 299 301 301 301 299
312 310 311 310 303 304 304 304 303 304 303 300 299 298 296 294 293 293 293 293 292 292 291 291 292 292 292 291 292 292 293 292 293 294 294 294 294 295 297 298 299 296 295 296
310 309 306 305 304 302 300 299 299 298 297 296 295 294 294 294 294 294 293 292 291 291 290 290 290 290 291 291 292 292 292 292 292 292 292 291 292 292 295 296 296 294 291 291
303 309 314 310 302 300 298 297 296 296 295 294 295 295 294 294 294 292 292 291 290 290 289 289 289 290 291 291 291 292 292 292 291 292 292 290 290 291 292 292 294 293 292 291
Wind_Speed
15 13 25 33 27 17 13 11 19 11 7 17 19 14 16 12 7 11 12 8 8 12 14 7 11 16 15 16 17 17 17 17 17 14 13 13 12 10 9 10 12 13 12 10
12 28 25 20 23 20 9 13 13 9 12 13 12 15 16 12 10 10 12 11 11 11 12 10 9 12 17 19 17 17 16 16 16 14 12 7 9 8 9 10 12 11 10 11
21 12 25 22 20 24 23 13 12 10 9 5 10 9 11 10 11 8 11 11 10 12 13 13 10 13 11 14 16 14 13 12 11 13 15 11 6 8 6 9 7 12 17 20
17 23 20 26 25 23 23 20 11 9 11 7 6 4 11 15 14 10 13 11 9 9 9 9 9 11 16 11 9 11 13 13 11 13 12 11 6 4 1 2 7 8 8 8
16 16 24 24 27 24 13 20 16 10 8 3 7 5 5 5 12 11 4 2 2 3 5 7 7 4 5 8 9 9 9 11 12 12 11 9 6 4 3 1 1 3 2 2
20 12 21 24 23 24 14 21 15 7 5 8 11 8 7 7 5 5 4 3 3 4 3 2 5 9 12 12 13 12 13 10 7 7 8 6 7 5 4 3 3 3 2 3
23 19 20 19 22 22 22 25 10 10 8 7 13 10 1 2 1 2 4 4 5 6 8 9 10 11 14 16 17 15 15 17 14 13 12 10 10 9 11 9 10 7 7 10
14 17 24 20 24 19 27 25 11 14 13 12 10 10 5 2 3 5 7 8 9 11 11 13 12 15 16 17 18 19 20 22 20 21 21 22 21 16 15 13 10 11 10 10
15 16 24 21 24 22 28 24 12 5 5 9 8 3 3 4 7 8 10 11 12 12 14 15 16 20 21 22 22 22 25 24 22 22 20 21 18 16 15 14 13 11 10 8
14 12 28 17 24 24 29 24 10 7 11 12 8 7 7 11 9 11 12 12 13 15 17 18 18 23 24 25 24 23 22 22 20 19 19 18 16 15 15 13 13 11 10 9
2 9 22 17 12 27 20 21 10 5 2 6 9 6 0 12 14 15 14 13 14 16 17 17 17 23 24 25 24 22 20 20 20 19 18 17 16 14 13 12 11 11 10 11
4 2 13 10 5 23 25 25 18 7 6 2 5 4 2 12 13 15 15 16 16 17 18 16 18 22 23 22 21 20 18 19 18 17 17 15 13 12 11 10 10 10 10 11
4 2 6 10 5 4 26 27 18 6 4 6 7 6 6 15 14 14 17 17 17 18 19 17 17 18 20 20 19 19 18 18 17 16 14 12 12 11 10 10 10 11 12 11
4 3 1 3 9 10 20 25 23 11 5 8 4 14 12 14 16 16 17 17 19 18 17 16 15 17 19 19 18 18 18 16 14 13 12 11 9 8 9 9 10 10 9 9
1 7 9 7 23 21 15 25 24 13 9 4 15 22 17 17 19 19 19 19 19 18 17 15 14 13 17 16 15 15 16 14 12 11 9 7 6 7 7 8 8 9 9 11
5 3 5 12 26 20 17 17 20 15 11 13 21 16 15 16 19 19 20 20 18 17 16 15 14 14 14 14 13 12 11 9 7 8 7 6 6 6 7 9 9 9 11 11
4 2 10 5 22 19 10 13 11 7 3 20 17 14 23 20 19 18 20 19 18 16 14 13 11 12 12 10 8 8 7 6 7 6 5 5 4 5 6 8 8 9 10 10
3 4 3 5 19 8 5 4 11 11 8 5 20 25 22 21 19 15 15 18 17 15 13 10 11 11 9 7 7 6 7 7 6 7 6 6 6 6 8 6 8 8 8 9
10 3 5 4 4 8 9 11 7 8 8 16 28 24 26 25 24 17 13 13 14 13 12 11 11 10 8 7 7 7 8 8 7 8 8 7 8 8 8 8 9 8 8 9
10 9 4 5 5 6 6 7 8 7 5 10 19 25 28 24 13 6 11 13 14 14 11 11 10 9 8 8 6 7 8 8 8 8 7 7 7 7 8 9 8 8 8 9
4 4 7 6 4 5 8 14 12 5 8 18 20 20 20 8 10 18 15 14 15 12 12 10 11 10 10 7 7 9 8 8 9 10 9 7 6 8 7 8 7 8 9 9
3 3 3 2 3 4 17 10 3 9 21 19 17 16 21 22 22 17 15 13 13 12 13 12 10 9 7 8 8 8 9 9 9 7 6 6 7 7 7 7 8 8 10 9
3 3 3 5 3 5 8 11 14 17 22 18 19 18 24 23 19 16 14 12 13 13 12 8 8 9 9 10 8 8 10 10 8 6 6 6 6 7 7 7 8 9 10 11
2 6 4 3 8 9 11 16 19 19 22 20 19 20 17 22 17 16 13 12 13 12 10 9 9 10 9 8 9 9 10 11 9 9 9 8 7 8 8 6 7 9 12 11
5 5 6 8 9 14 17 16 18 21 21 23 19 18 19 18 18 16 13 13 13 12 10 9 9 8 9 10 11 11 12 12 11 11 10 10 10 9 8 7 8 8 13 15
8 1 1 3 10 12 8 11 15 21 20 18 21 20 17 19 18 19 14 14 13 12 10 10 9 10 10 10 11 13 13 13 11 11 10 11 10 8 8 6 4 7 6 12
Wind_Direction
190 192 205 203 210 227 218 193 205 191 176 194 205 205 234 248 217 237 247 226 223 234 249 219 203 191 190 190 186 185 188 193 188 192 199 215 220 221 227 225 228 234 246 236
178 220 214 211 209 215 197 200 202 193 196 195 190 216 229 222 227 227 236 238 228 232 251 248 198 196 192 192 198 188 186 184 186 190 199 197 196 210 213 220 233 240 247 261
199 204 213 205 200 205 216 203 180 156 153 197 166 209 214 213 224 219 242 237 233 226 231 245 230 216 213 205 198 185 176 174 178 191 199 200 206 234 237 239 253 269 282 281
217 225 187 193 205 197 206 203 184 173 182 196 213 211 207 217 203 207 224 223 227 217 234 245 229 213 208 205 186 181 181 183 189 201 194 198 189 188 160 294 284 284 284 281
209 202 199 199 208 199 205 180 191 187 203 198 182 220 151 176 202 205 179 122 247 281 270 250 245 258 175 150 138 148 161 174 190 196 199 200 208 230 259 257 28 55 26 309
223 206 187 201 197 188 169 166 179 163 186 235 195 212 189 180 151 144 121 64 10 13 20 45 112 114 113 120 116 123 126 122 136 160 179 178 164 160 143 113 100 68 52 32
203 213 199 193 184 183 173 158 156 180 198 216 183 192 124 122 13 200 150 104 63 46 71 97 94 96 101 106 109 110 114 109 114 115 115 120 116 109 107 103 89 90 66 46
183 203 214 183 188 177 191 178 173 176 185 170 176 196 157 70 77 108 108 95 82 76 81 88 96 101 103 106 109 114 113 107 106 106 103 104 105 98 95 91 93 75 65 52
188 205 188 191 179 168 184 192 181 137 156 160 160 152 179 137 109 108 105 95 87 88 93 91 94 94 96 96 98 105 106 103 100 99 96 92 95 98 98 92 84 74 69 56
188 190 180 183 181 193 181 175 177 178 165 169 170 175 157 168 144 124 114 106 101 101 95 93 91 92 94 95 96 96 96 97 99 97 90 89 89 89 90 84 78 69 53 38
4 201 172 170 191 183 180 186 200 122 189 165 156 156 68 155 149 131 119 107 107 100 95 93 90 89 92 93 92 90 89 90 86 85 87 86 81 79 76 70 59 47 34 27
244 35 155 177 250 193 178 187 181 173 157 82 157 122 74 134 131 126 112 111 105 99 97 93 91 92 88 87 86 84 81 80 80 83 82 78 76 70 64 56 43 30 24 16
213 148 137 147 72 357 181 186 194 126 152 170 147 148 132 123 110 114 119 115 110 105 100 96 89 83 81 79 77 76 75 73 73 75 74 68 59 52 44 31 17 12 10 359
303 152 116 181 144 147 170 185 179 186 189 155 113 139 150 134 126 127 122 118 115 108 101 93 84 78 74 71 70 70 69 66 66 66 64 57 51 39 25 9 4 358 352 347
287 160 188 231 143 161 164 179 181 181 152 176 151 154 158 148 140 137 125 125 121 110 101 95 90 82 76 71 68 65 60 53 49 49 47 38 28 15 5 1 350 355 354 356
346 128 158 141 152 172 169 173 189 186 94 95 136 125 138 124 128 137 134 130 118 112 108 102 95 87 78 71 63 60 54 46 44 43 28 10 2 351 359 356 354 357 356 353
284 204 129 103 155 152 177 168 144 125 123 144 146 150 131 136 139 143 138 128 124 119 109 102 94 85 71 65 58 53 43 31 34 28 13 359 358 354 359 1 358 0 354 348
336 104 62 108 122 143 136 26 141 121 123 133 117 139 136 129 119 117 126 125 121 114 109 97 92 78 60 50 46 45 38 34 32 26 13 6 358 360 5 6 8 357 350 353
18 54 86 105 101 120 99 118 137 154 58 143 128 124 122 120 102 73 87 97 102 101 92 87 74 64 49 41 41 46 40 30 25 15 6 359 359 355 355 4 1 351 350 5
27 27 106 139 94 141 46 100 33 131 105 124 133 137 140 148 143 133 112 102 94 88 82 77 66 64 54 35 32 40 34 26 13 356 342 340 345 342 349 353 347 342 354 0
10 12 72 92 89 87 11 326 316 203 157 148 144 143 146 130 111 126 115 97 90 88 84 75 69 58 46 34 39 42 30 19 359 350 339 339 342 339 345 341 343 352 1 5
49 359 42 76 106 131 351 320 282 116 122 136 130 112 110 114 115 115 108 99 92 88 79 69 70 65 48 40 40 31 17 355 347 343 334 346 352 353 346 348 359 7 14 13
62 359 99 26 79 15 8 71 87 112 112 115 111 114 120 117 112 110 106 98 92 84 81 81 81 72 55 43 37 29 13 3 358 2 2 1 7 6 5 8 13 23 25 17
69 17 87 126 28 49 62 72 76 89 98 99 103 110 110 108 112 107 105 100 95 92 87 81 74 63 54 44 39 30 18 13 15 20 19 6 14 17 21 33 39 40 32 22
2 4 101 90 112 76 48 68 91 94 91 91 91 94 100 112 107 108 105 103 99 94 84 79 75 63 52 45 38 28 20 22 21 24 21 13 24 24 28 45 42 62 50 38
338 275 346 86 80 98 73 74 85 87 90 96 101 102 104 110 108 108 101 100 95 89 82 74 67 58 50 45 40 32 29 29 26 29 29 26 26 27 34 34 53 45 55 43